This is the latest recevied weather packets stored in our database for station/object W0BJ-1. If no packets are shown the sender has not sent any weather packets the latest 10 day(s).
| Time | Temp. | Humidity | Pressure | Rain* | Wind** | Luminosity | Snow |
|---|---|---|---|---|---|---|---|
| 1777383343 | 11.11° C | 80% | 1016.7 hPa | 0 mm | - | 229 W/m² | - |
| 1777374342 | 11.11° C | 83% | 1014.9 hPa | 0 mm | - | 0 W/m² | - |
| 1777374063 | 11.11° C | 83% | 1014.9 hPa | 0 mm | - | 0 W/m² | - |
| 1777368338 | 12.78° C | 82% | 1013.8 hPa | 0 mm | - | 0 W/m² | - |
| 1777367784 | 12.78° C | 82% | 1013.6 hPa | 0 mm | - | 0 W/m² | - |
| 1777364147 | 13.33° C | 82% | 1013.2 hPa | 0 mm | - | 0 W/m² | - |
| 1777362357 | 13.33° C | 83% | 1012.9 hPa | 0 mm | - | 0 W/m² | - |
| 1777358436 | 13.89° C | 85% | 1012.2 hPa | 0 mm | - | 0 W/m² | - |
| 1777357855 | 13.89° C | 85% | 1012.2 hPa | 0 mm | - | 0 W/m² | - |
| 1777356639 | 14.44° C | 85% | 1012 hPa | 0 mm | - | 0 W/m² | - |
| 1777355741 | 14.44° C | 85% | 1011.9 hPa | 0 mm | - | 0 W/m² | - |
| 1777354246 | 15° C | 84% | 1011.3 hPa | 0 mm | - | 0 W/m² | - |
| 1777353036 | 15° C | 88% | 1010.9 hPa | 0 mm | - | 0 W/m² | - |
| 1777352450 | 15° C | 89% | 1010.6 hPa | 0 mm | - | 0 W/m² | - |
| 1777352140 | 15° C | 90% | 1010.7 hPa | 0 mm | - | 0 W/m² | - |
| 1777351552 | 15° C | 91% | 1010.5 hPa | 0 mm | - | 0 W/m² | - |
| 1777349440 | 15.56° C | 92% | 1009.9 hPa | 0 mm | - | 0 W/m² | - |
| 1777348851 | 15.56° C | 92% | 1009.8 hPa | 0 mm | - | 0 W/m² | - |
| 1777347640 | 15.56° C | 92% | 1009.2 hPa | 0 mm | - | 0 W/m² | - |
| 1777344940 | 15.56° C | 92% | 1008.3 hPa | 0 mm | - | 0 W/m² | - |
| 1777344349 | 16.11° C | 91% | 1007.8 hPa | 0 mm | - | 0 W/m² | - |
| 1777343740 | 16.11° C | 91% | 1007.3 hPa | 0 mm | - | 0 W/m² | - |
| 1777341938 | 16.67° C | 91% | 1006.7 hPa | 0 mm | - | 0 W/m² | - |
| 1777341340 | 16.67° C | 91% | 1006.1 hPa | 0 mm | - | 0 W/m² | - |
| 1777338951 | 17.22° C | 90% | 1004.6 hPa | 0 mm | - | 0 W/m² | - |
* Rain latest hour (hover to see other rain measurements)
** Current wind speed in m/s (hover to see current wind gust speed)